Tracking 28518 objects as of 1-Mar-2024
HD Live streaming from Space Station
objects crossing your sky now

PSLV R/B

Track PSLV R/B now!
10-day predictions


NORAD ID: 41242
Int'l Code: 2016-003B
Perigee: 340.6 km
Apogee: 20,583.3 km
Inclination: 19.3 °
Period: 362.2 minutes
Semi major axis: 16832 km
RCS: Unknown
Launch date: January 20, 2016
Source: India (IND)
Launch site: SRIHARIKOTA (SRI)

Note: This is a ROCKET BODY
Your satellite tracking list
Your tracking list is empty




NASA's NSSDC Master Catalog

Two Line Element Set (TLE):
1 41242U 16003B   24061.07858914  .00003482  00000-0  16245-2 0  9995
2 41242  19.2765  14.0621 6012831  12.1047 357.4978  3.97523097117035
Source of the keplerian elements: AFSPC